M I D A S
Marine Information and Data Acquisition System
Tripno 1984 of the Zeeleeuw from 2010-11-08 07:17:38 to 2010-11-08 14:02:37
Back to CruiseResearch ActivitiesStationsMapUnderway DataData graphs

EquipmentUnitsComments
TimeDGPSUTC
LatitudeDGPSDM.mWGS84
LongitudeDGPSDM.mWGS84
SpeedMeteo Stationm/sRelative wind speed
DirectionMeteo StationdegRelative wind direction
TemperatureMeteo Stationdeg CelciusAir temperature
PressureMeteo StationPaAtmospheric pressure
HumidityMeteo Station%Relative humidity
Missing or incorrect values are displayed as -999
Metereological data collected by the RV Zeeleeuw from 2010-11-08 07:08:11 to 2010-11-08 14:30:11
Time Latitude Longitude Speed Direction Temperature Pressure Humidity
2010-11-08 07:09 51°13.663 2°55.959 3.6 285 5.2 98240 42
2010-11-08 07:10 51°13.664 2°55.959 6.3 349 5.2 98230 39
2010-11-08 07:11 51°13.664 2°55.959 5.1 347 5.2 98230 43
2010-11-08 07:12 51°13.664 2°55.959 7.3 280 5.2 98230 41
2010-11-08 07:13 51°13.665 2°55.958 4.3 280 5.2 98230 43
2010-11-08 07:14 51°13.664 2°55.959 5.3 285 5.3 98220 41
2010-11-08 07:15 51°13.664 2°55.959 5.3 286 5.2 98220 42
2010-11-08 07:16 51°13.664 2°55.958 4.8 350 5.2 98220 42
2010-11-08 07:17 51°13.664 2°55.959 5.1 346 5.3 98210 40
2010-11-08 07:18 51°13.664 2°55.96 -999 283 5.3 98220 40
2010-11-08 07:19 51°13.664 2°55.96 -999 284 5.3 98210 41
2010-11-08 07:20 51°13.663 2°55.961 -999 283 5.3 98210 41
2010-11-08 07:21 51°13.663 2°55.961 4.3 280 5.3 98210 43
2010-11-08 07:22 51°13.662 2°55.961 0.1 352 5.3 98200 40
2010-11-08 07:23 51°13.662 2°55.961 -999 283 5.3 98200 41
2010-11-08 07:24 51°13.662 2°55.961 -999 283 5.3 98200 41
2010-11-08 07:25 51°13.662 2°55.961 -999 283 5.4 98190 41
2010-11-08 07:26 51°13.662 2°55.961 -999 283 5.3 98190 40
2010-11-08 07:27 51°13.661 2°55.961 -999 283 5.3 98190 41
2010-11-08 07:28 51°13.661 2°55.958 5 281 5.3 98180 40
2010-11-08 07:29 51°13.682 2°55.871 0.1 9 5.3 98190 40
2010-11-08 07:30 51°13.687 2°55.749 -999 24 5.3 98190 41
2010-11-08 07:31 51°13.705 2°55.736 3.8 81 5.3 98180 42
2010-11-08 07:32 51°13.785 2°55.684 1.4 82 5.3 98180 41
2010-11-08 07:33 51°13.917 2°55.579 2.7 79 5.4 98180 41
2010-11-08 07:34 51°14.067 2°55.458 0.6 79 5.4 98180 39
2010-11-08 07:35 51°14.229 2°55.323 -999 77 5.4 98170 41
2010-11-08 07:36 51°14.385 2°55.168 -999 78 5.4 98180 41
2010-11-08 07:37 51°14.546 2°55.013 2.3 280 5.5 98170 41
2010-11-08 07:38 51°14.641 2°54.729 6.1 285 5.5 98170 42
2010-11-08 07:39 51°14.561 2°54.417 12.4 283 5.5 98140 41
2010-11-08 07:40 51°14.419 2°54.14 11.9 282 5.5 98100 41
2010-11-08 07:41 51°14.294 2°53.839 12.2 284 5.5 98130 42
2010-11-08 07:42 51°14.172 2°53.527 11.8 286 5.6 98120 40
2010-11-08 07:43 51°14.048 2°53.212 10.3 279 5.5 98130 41
2010-11-08 07:44 51°13.918 2°52.897 13.7 285 5.5 98110 41
2010-11-08 07:45 51°13.779 2°52.581 11.4 283 5.5 98100 41
2010-11-08 07:46 51°13.666 2°52.253 11.1 283 5.5 98110 41
2010-11-08 07:47 51°13.555 2°51.912 14.4 284 5.5 98120 42
2010-11-08 07:48 51°13.49 2°51.623 10.1 283 5.5 98120 40
2010-11-08 07:49 51°13.445 2°51.475 9.7 278 5.6 98130 41
2010-11-08 07:50 51°13.434 2°51.428 10.9 76 5.7 98150 38
2010-11-08 07:51 51°13.427 2°51.405 10.8 81 5.7 98130 41
2010-11-08 07:52 51°13.424 2°51.376 9.7 76 5.6 98140 42
2010-11-08 07:53 51°13.423 2°51.344 11.4 33 5.6 98130 41
2010-11-08 07:54 51°13.423 2°51.307 8.5 77 5.4 98140 41
2010-11-08 07:55 51°13.422 2°51.267 7.3 287 5.6 98130 42
2010-11-08 07:56 51°13.415 2°51.206 12.2 283 5.7 98120 42
2010-11-08 07:57 51°13.385 2°51.13 9.4 287 5.7 98110 41
2010-11-08 07:58 51°13.335 2°51.094 8.3 279 5.7 98090 40
2010-11-08 07:59 51°13.263 2°51.093 11.4 284 5.6 98080 40
2010-11-08 08:00 51°13.179 2°51.042 7.5 285 5.5 98070 41
2010-11-08 08:01 51°13.124 2°50.967 9.8 283 5.6 98070 40
2010-11-08 08:02 51°13.088 2°50.894 9.9 281 5.6 98070 40
2010-11-08 08:03 51°13.052 2°50.825 10 282 5.6 98060 41
2010-11-08 08:04 51°13.012 2°50.761 8.6 280 5.6 98060 42
2010-11-08 08:05 51°12.968 2°50.705 9.9 284 5.6 98060 42
2010-11-08 08:06 51°12.922 2°50.642 11.1 287 5.6 98060 39
2010-11-08 08:07 51°12.88 2°50.571 8.9 287 5.6 98050 40
2010-11-08 08:08 51°12.841 2°50.497 10.2 282 5.6 98050 41
2010-11-08 08:09 51°12.804 2°50.423 10.9 281 5.6 98050 41
2010-11-08 08:10 51°12.766 2°50.351 11.3 284 5.6 98060 41
2010-11-08 08:11 51°12.728 2°50.278 9.8 285 5.6 98040 40
2010-11-08 08:12 51°12.691 2°50.208 9.1 283 5.6 98040 42
2010-11-08 08:13 51°12.655 2°50.137 8.5 283 5.7 98040 40
2010-11-08 08:14 51°12.621 2°50.06 10.2 281 5.6 98040 40
2010-11-08 08:15 51°12.589 2°49.979 9.1 285 5.6 98030 41
2010-11-08 08:16 51°12.558 2°49.899 11.1 283 5.7 98040 42
2010-11-08 08:17 51°12.529 2°49.818 7.4 286 5.6 98030 42
2010-11-08 08:18 51°12.499 2°49.737 7.8 284 5.6 98020 41
2010-11-08 08:19 51°12.467 2°49.654 10.2 282 5.7 98030 42
2010-11-08 08:20 51°12.437 2°49.574 9.6 282 5.7 98020 40
2010-11-08 08:21 51°12.405 2°49.493 12.6 286 5.7 98020 42
2010-11-08 08:22 51°12.374 2°49.41 9.2 283 5.7 98020 41
2010-11-08 08:23 51°12.344 2°49.33 10.2 281 5.7 98020 42
2010-11-08 08:24 51°12.313 2°49.249 11.1 281 5.7 98020 40
2010-11-08 08:25 51°12.283 2°49.168 11.1 285 5.8 98020 41
2010-11-08 08:26 51°12.252 2°49.088 8.3 278 5.7 98010 42
2010-11-08 08:27 51°12.22 2°49.006 8.2 284 5.7 98010 42
2010-11-08 08:28 51°12.189 2°48.927 11.1 283 5.6 98000 40
2010-11-08 08:29 51°12.158 2°48.842 10.1 286 5.7 98000 41
2010-11-08 08:30 51°12.146 2°48.755 7.2 285 5.6 97990 41
2010-11-08 08:31 51°12.148 2°48.668 7.6 279 5.5 98000 40
2010-11-08 08:32 51°12.17 2°48.581 5 79 5.7 98010 42
2010-11-08 08:33 51°12.216 2°48.533 6.7 38 5.6 98010 40
2010-11-08 08:34 51°12.255 2°48.53 7.7 32 5.6 98010 40
2010-11-08 08:35 51°12.275 2°48.531 9.3 27 5.6 98010 42
2010-11-08 08:36 51°12.286 2°48.529 8.6 24 5.7 97990 41
2010-11-08 08:37 51°12.291 2°48.522 7.5 24 5.6 97990 42
2010-11-08 08:38 51°12.33 2°48.518 5.8 82 5.7 97990 41
2010-11-08 08:39 51°12.349 2°48.368 13.8 279 5.8 98000 41
2010-11-08 08:40 51°12.271 2°48.148 11.5 282 5.7 97980 41
2010-11-08 08:41 51°12.141 2°47.861 15.3 284 5.8 97970 41
2010-11-08 08:42 51°12.012 2°47.528 14.3 279 5.7 97950 41
2010-11-08 08:43 51°11.888 2°47.208 15.8 284 5.8 97950 42
2010-11-08 08:44 51°11.76 2°46.881 17.1 282 5.8 97940 41
2010-11-08 08:45 51°11.637 2°46.566 17.7 283 5.8 97940 40
2010-11-08 08:46 51°11.513 2°46.25 15.8 284 5.8 97920 41
2010-11-08 08:47 51°11.39 2°45.936 15.7 285 5.9 97930 41
2010-11-08 08:48 51°11.265 2°45.626 13.9 281 5.9 97920 41
2010-11-08 08:49 51°11.142 2°45.318 15.1 287 5.8 97910 40
2010-11-08 08:50 51°11.016 2°45.008 14.6 283 5.9 97910 41
2010-11-08 08:51 51°10.898 2°44.707 16.5 281 5.8 97910 40
2010-11-08 08:52 51°10.779 2°44.404 13.7 281 5.8 97920 41
2010-11-08 08:53 51°10.664 2°44.104 13.7 284 5.8 97920 40
2010-11-08 08:54 51°10.546 2°43.806 16.5 287 5.8 97900 40
2010-11-08 08:55 51°10.427 2°43.503 17.8 285 5.8 97920 40
2010-11-08 08:56 51°10.312 2°43.207 13.5 280 5.9 97920 41
2010-11-08 08:57 51°10.208 2°42.969 11 286 5.9 97900 41
2010-11-08 08:58 51°10.159 2°42.863 6.4 286 5.9 97930 41
2010-11-08 08:59 51°10.155 2°42.825 8.9 84 5.9 97960 42
2010-11-08 09:00 51°10.156 2°42.804 10.2 77 5.8 97940 41
2010-11-08 09:01 51°10.158 2°42.781 4.3 280 5.8 97950 40
2010-11-08 09:02 51°10.159 2°42.756 6.6 279 5.8 97940 39
2010-11-08 09:03 51°10.161 2°42.731 9.2 285 5.8 97940 42
2010-11-08 09:04 51°10.161 2°42.706 10.1 285 5.8 97930 40
2010-11-08 09:05 51°10.162 2°42.681 10.1 287 6 97920 41
2010-11-08 09:06 51°10.162 2°42.653 7.6 282 5.9 97930 40
2010-11-08 09:07 51°10.164 2°42.574 7.5 286 5.8 97920 40
2010-11-08 09:08 51°10.208 2°42.495 6.1 81 5.7 97920 42
2010-11-08 09:09 51°10.274 2°42.484 9.5 39 5.8 97920 41
2010-11-08 09:10 51°10.328 2°42.512 10.6 27 5.8 97890 39
2010-11-08 09:11 51°10.375 2°42.551 11 27 5.8 97900 41
2010-11-08 09:12 51°10.42 2°42.585 10.1 31 5.9 97890 40
2010-11-08 09:13 51°10.462 2°42.629 12.8 23 5.8 97890 40
2010-11-08 09:14 51°10.495 2°42.687 12.8 22 5.8 97870 40
2010-11-08 09:15 51°10.511 2°42.76 12.9 8 5.9 97880 40
2010-11-08 09:16 51°10.512 2°42.834 12.4 7 5.8 97850 40
2010-11-08 09:17 51°10.504 2°42.906 11 3 5.9 97850 40
2010-11-08 09:18 51°10.493 2°42.979 10.4 355 5.9 97850 39
2010-11-08 09:19 51°10.483 2°43.056 12.6 3 6 97850 39
2010-11-08 09:20 51°10.474 2°43.13 12.7 1 5.9 97840 40
2010-11-08 09:21 51°10.463 2°43.205 11.3 359 5.9 97850 39
2010-11-08 09:22 51°10.455 2°43.281 10.2 3 5.8 97850 40
2010-11-08 09:23 51°10.446 2°43.361 11.6 1 5.9 97860 41
2010-11-08 09:24 51°10.437 2°43.439 10.3 3 5.9 97850 41
2010-11-08 09:25 51°10.429 2°43.517 12.6 355 6 97840 40
2010-11-08 09:26 51°10.422 2°43.597 8 5 5.9 97840 39
2010-11-08 09:27 51°10.414 2°43.677 12.3 356 6 97840 39
2010-11-08 09:28 51°10.409 2°43.756 10 1 5.8 97840 40
2010-11-08 09:29 51°10.403 2°43.838 12.4 355 5.9 97830 40
2010-11-08 09:30 51°10.397 2°43.917 10.6 357 5.8 97830 40
2010-11-08 09:31 51°10.392 2°43.997 11.7 -999 5.8 97820 40
2010-11-08 09:32 51°10.388 2°44.075 10.8 5 5.8 97830 40
2010-11-08 09:33 51°10.396 2°44.156 11 12 5.8 97830 40
2010-11-08 09:34 51°10.419 2°44.235 10.5 12 5.9 97840 39
2010-11-08 09:35 51°10.448 2°44.312 10.1 14 5.9 97830 40
2010-11-08 09:36 51°10.476 2°44.387 10.8 15 5.9 97830 40
2010-11-08 09:37 51°10.507 2°44.461 12.5 17 5.9 97830 39
2010-11-08 09:38 51°10.539 2°44.534 11.2 16 6 97810 40
2010-11-08 09:39 51°10.57 2°44.607 11.3 21 6 97810 39
2010-11-08 09:40 51°10.609 2°44.67 13.2 25 5.9 97810 39
2010-11-08 09:41 51°10.659 2°44.719 8.8 30 6 97810 40
2010-11-08 09:42 51°10.716 2°44.751 10 40 5.9 97820 39
2010-11-08 09:43 51°10.778 2°44.764 12 40 6 97810 39
2010-11-08 09:44 51°10.845 2°44.758 10.3 38 5.9 97810 39
2010-11-08 09:45 51°10.906 2°44.772 9.9 28 6 97800 40
2010-11-08 09:46 51°10.959 2°44.807 11.3 32 6 97800 39
2010-11-08 09:47 51°11.005 2°44.855 9.5 23 6.2 97800 40
2010-11-08 09:48 51°11.041 2°44.915 12.4 14 6.2 97790 40
2010-11-08 09:49 51°11.064 2°44.987 10.6 3 6.1 97780 39
2010-11-08 09:50 51°11.067 2°45.058 14.9 357 6.1 97770 38
2010-11-08 09:51 51°11.061 2°45.109 11 2 6.1 97760 39
2010-11-08 09:52 51°11.061 2°45.129 12.4 358 6.2 97800 39
2010-11-08 09:53 51°11.063 2°45.129 13.8 9 6.1 97790 40
2010-11-08 09:54 51°11.067 2°45.12 9 2 6.2 97780 39
2010-11-08 09:55 51°11.073 2°45.101 10.9 8 6.2 97770 39
2010-11-08 09:56 51°11.082 2°45.091 12.4 21 6.2 97760 39
2010-11-08 09:57 51°11.109 2°45.101 9.6 40 6 97770 39
2010-11-08 09:58 51°11.151 2°45.075 10.7 79 6 97790 39
2010-11-08 09:59 51°11.161 2°44.933 15.4 284 5.9 97780 39
2010-11-08 10:00 51°11.126 2°44.669 13.4 284 6 97760 39
2010-11-08 10:01 51°11.088 2°44.325 12.9 283 6.1 97760 39
2010-11-08 10:02 51°11.046 2°43.959 12.7 282 6.2 97750 40
2010-11-08 10:03 51°11.006 2°43.6 11.4 280 6.3 97730 39
2010-11-08 10:04 51°10.966 2°43.248 16.5 284 6.2 97740 38
2010-11-08 10:05 51°10.926 2°42.89 14.6 283 6.3 97720 39
2010-11-08 10:06 51°10.884 2°42.527 16.5 285 6.3 97730 38
2010-11-08 10:07 51°10.845 2°42.177 14.7 285 6.3 97720 38
2010-11-08 10:08 51°10.806 2°41.825 15.4 284 6.3 97750 39
2010-11-08 10:09 51°10.768 2°41.468 13.2 288 6.3 97750 39
2010-11-08 10:10 51°10.73 2°41.124 15.6 286 6.2 97750 39
2010-11-08 10:11 51°10.691 2°40.773 14 284 6.2 97720 39
2010-11-08 10:12 51°10.65 2°40.418 15.4 282 6.2 97730 39
2010-11-08 10:13 51°10.611 2°40.068 17.2 283 6.2 97720 39
2010-11-08 10:14 51°10.573 2°39.717 15.8 285 6.3 97710 38
2010-11-08 10:15 51°10.533 2°39.37 18 281 6.3 97720 39
2010-11-08 10:16 51°10.491 2°39.01 12.9 280 6.3 97710 38
2010-11-08 10:17 51°10.449 2°38.655 14.5 287 6.2 97690 38
2010-11-08 10:18 51°10.41 2°38.302 13.6 280 6.2 97700 38
2010-11-08 10:19 51°10.37 2°37.95 13.9 286 6.3 97690 38
2010-11-08 10:20 51°10.332 2°37.607 12.5 288 6.3 97700 39
2010-11-08 10:21 51°10.293 2°37.256 15.6 288 6.4 97690 39
2010-11-08 10:22 51°10.257 2°36.919 14.3 283 6.3 97680 38
2010-11-08 10:23 51°10.323 2°36.609 7.3 80 6.4 97720 38
2010-11-08 10:24 51°10.491 2°36.424 6.9 34 6.2 97710 40
2010-11-08 10:25 51°10.684 2°36.5 8.9 21 6.2 97670 39
2010-11-08 10:26 51°10.864 2°36.653 9.7 23 6.3 97680 40
2010-11-08 10:27 51°11.044 2°36.813 9.7 24 6.3 97670 39
2010-11-08 10:28 51°11.234 2°36.909 7.5 37 6.3 97680 39
2010-11-08 10:29 51°11.439 2°36.959 8.7 33 6.3 97670 38
2010-11-08 10:30 51°11.645 2°37.008 9.4 35 6.3 97670 38
2010-11-08 10:31 51°11.852 2°37.06 8.9 30 6.3 97670 39
2010-11-08 10:32 51°12.054 2°37.112 10.4 28 6.4 97670 38
2010-11-08 10:33 51°12.257 2°37.169 10.5 39 6.3 97660 39
2010-11-08 10:34 51°12.466 2°37.218 10.3 37 6.3 97660 39
2010-11-08 10:35 51°12.674 2°37.275 10.5 30 6.3 97670 38
2010-11-08 10:36 51°12.879 2°37.335 9.6 30 6.3 97650 39
2010-11-08 10:37 51°13.083 2°37.37 6.6 40 6.3 97650 38
2010-11-08 10:38 51°13.288 2°37.383 5.1 38 6.3 97650 36
2010-11-08 10:39 51°13.491 2°37.362 8.5 75 6.4 97650 40
2010-11-08 10:40 51°13.677 2°37.234 4.6 43 6.5 97660 37
2010-11-08 10:41 51°13.863 2°37.051 9.2 77 6.9 97660 38
2010-11-08 10:42 51°14.028 2°36.829 8 77 6.8 97670 38
2010-11-08 10:43 51°14.193 2°36.625 6.8 79 6.6 97660 37
2010-11-08 10:44 51°14.366 2°36.422 7 75 6.6 97650 38
2010-11-08 10:45 51°14.559 2°36.275 7 74 6.9 97640 38
2010-11-08 10:46 51°14.764 2°36.166 6.9 76 7.2 97640 38
2010-11-08 10:47 51°14.96 2°36.056 9 80 7.2 97640 37
2010-11-08 10:48 51°15.159 2°35.971 8 74 7.1 97630 37
2010-11-08 10:49 51°15.364 2°35.881 9.3 75 6.9 97640 38
2010-11-08 10:50 51°15.568 2°35.803 7.5 43 6.8 97630 38
2010-11-08 10:51 51°15.778 2°35.748 9 75 6.7 97630 37
2010-11-08 10:52 51°15.987 2°35.684 6.6 80 6.7 97630 39
2010-11-08 10:53 51°16.201 2°35.627 6.8 39 7 97620 39
2010-11-08 10:54 51°16.41 2°35.571 9.2 41 6.9 97620 39
2010-11-08 10:55 51°16.619 2°35.516 7.6 43 6.7 97610 37
2010-11-08 10:56 51°16.829 2°35.459 4.6 37 6.7 97610 37
2010-11-08 10:57 51°17.042 2°35.416 9.1 36 6.7 97600 39
2010-11-08 10:58 51°17.255 2°35.374 7.8 42 6.6 97600 39
2010-11-08 10:59 51°17.459 2°35.328 8.4 40 6.7 97610 38
2010-11-08 11:00 51°17.655 2°35.24 8.4 75 6.8 97610 40
2010-11-08 11:01 51°17.767 2°34.976 9.4 285 6.9 97620 38
2010-11-08 11:02 51°17.851 2°34.671 6.8 284 6.9 97580 39
2010-11-08 11:03 51°17.935 2°34.359 9.5 280 6.9 97600 39
2010-11-08 11:04 51°18.018 2°34.053 9.8 285 6.8 97590 39
2010-11-08 11:05 51°18.088 2°33.75 8.3 282 6.9 97620 39
2010-11-08 11:06 51°18.167 2°33.441 7.3 285 6.9 97570 40
2010-11-08 11:07 51°18.243 2°33.137 8.7 74 6.9 97590 39
2010-11-08 11:08 51°18.327 2°32.845 8 280 6.9 97590 38
2010-11-08 11:09 51°18.409 2°32.532 10.7 283 6.8 97590 39
2010-11-08 11:10 51°18.491 2°32.236 8.5 80 6.9 97580 39
2010-11-08 11:11 51°18.57 2°31.929 5 286 7 97560 40
2010-11-08 11:12 51°18.628 2°31.605 8.2 281 7.1 97580 39
2010-11-08 11:13 51°18.677 2°31.286 8.2 284 7 97540 38
2010-11-08 11:14 51°18.729 2°30.963 8.9 284 6.9 97540 37
2010-11-08 11:15 51°18.778 2°30.641 12.6 85 6.8 97530 38
2010-11-08 11:16 51°18.839 2°30.337 13.2 81 6.9 97530 38
2010-11-08 11:17 51°18.899 2°30.035 7 287 7 97520 36
2010-11-08 11:18 51°18.93 2°29.737 8.6 285 6.8 97540 37
2010-11-08 11:19 51°18.945 2°29.448 8.4 286 7 97560 39
2010-11-08 11:20 51°18.956 2°29.163 7.3 279 7.1 97530 39
2010-11-08 11:21 51°18.946 2°28.882 16.2 284 7.1 97550 39
2010-11-08 11:22 51°18.806 2°28.703 18.5 283 7.1 97390 39
2010-11-08 11:23 51°18.704 2°28.463 18.4 282 7.1 97470 39
2010-11-08 11:24 51°18.596 2°28.213 14.8 285 7.2 97420 40
2010-11-08 11:25 51°18.473 2°27.976 15.9 282 7 97420 39
2010-11-08 11:26 51°18.351 2°27.741 17.8 280 7.1 97440 40
2010-11-08 11:27 51°18.23 2°27.502 15.3 285 7.2 97460 39
2010-11-08 11:28 51°18.104 2°27.274 16.4 281 7.2 97450 39
2010-11-08 11:29 51°17.972 2°27.061 18.3 281 7.1 97390 39
2010-11-08 11:30 51°17.83 2°26.849 16.8 281 7.1 97410 39
2010-11-08 11:31 51°17.682 2°26.656 18.5 282 7 97400 39
2010-11-08 11:32 51°17.533 2°26.469 19.3 286 7 97350 39
2010-11-08 11:33 51°17.378 2°26.302 19.4 282 7.1 97370 39
2010-11-08 11:34 51°17.223 2°26.143 19.4 282 7 97370 38
2010-11-08 11:35 51°17.064 2°25.979 20.7 284 7.1 97400 38
2010-11-08 11:36 51°16.897 2°25.85 20.6 281 7.1 97380 39
2010-11-08 11:37 51°16.726 2°25.745 18.8 284 7 97370 39
2010-11-08 11:38 51°16.593 2°25.536 19.5 280 7.1 97380 39
2010-11-08 11:39 51°16.463 2°25.338 18 282 7.1 97420 38
2010-11-08 11:40 51°16.318 2°25.279 19.7 283 7.2 97370 39
2010-11-08 11:41 51°16.185 2°25.272 16.2 284 7.3 97380 39
2010-11-08 11:42 51°16.105 2°25.273 15.5 281 7.4 97380 40
2010-11-08 11:43 51°16.098 2°25.28 16.9 284 7.2 97430 39
2010-11-08 11:44 51°16.103 2°25.291 17.2 283 7.3 97460 39
2010-11-08 11:45 51°16.116 2°25.309 18.4 284 7.2 97440 39
2010-11-08 11:46 51°16.136 2°25.33 16.5 282 7.1 97460 39
2010-11-08 11:47 51°16.16 2°25.357 12.3 280 7 97460 38
2010-11-08 11:48 51°16.183 2°25.393 15.7 283 7.1 97450 39
2010-11-08 11:49 51°16.205 2°25.43 13.3 278 7.2 97440 39
2010-11-08 11:50 51°16.227 2°25.473 8.9 279 7.2 97450 38
2010-11-08 11:51 51°16.248 2°25.509 10.9 284 7.1 97420 38
2010-11-08 11:52 51°16.263 2°25.497 11.3 81 7.3 97430 40
2010-11-08 11:53 51°16.306 2°25.426 7.8 280 7.2 97410 39
2010-11-08 11:54 51°16.291 2°25.285 12.6 283 7.2 97420 40
2010-11-08 11:55 51°16.232 2°25.119 12.8 279 7.3 97420 40
2010-11-08 11:56 51°16.258 2°25.001 6.9 81 7.2 97430 39
2010-11-08 11:57 51°16.339 2°24.966 9.7 80 7 97390 40
2010-11-08 11:58 51°16.416 2°24.98 13.8 30 7.1 97360 38
2010-11-08 11:59 51°16.503 2°25.044 13.4 28 7.1 97390 40
2010-11-08 12:00 51°16.573 2°25.142 16.7 16 7.1 97420 39
2010-11-08 12:01 51°16.626 2°25.252 16.9 10 7.1 97340 39
2010-11-08 12:02 51°16.681 2°25.358 12.8 17 7 97350 39
2010-11-08 12:03 51°16.738 2°25.455 8.9 25 7.1 97350 40
2010-11-08 12:04 51°16.803 2°25.536 12.8 21 7.2 97330 39
2010-11-08 12:05 51°16.862 2°25.613 15.3 19 7 97340 39
2010-11-08 12:06 51°16.918 2°25.689 12.5 24 7.1 97330 38
2010-11-08 12:07 51°16.974 2°25.766 16 19 7.1 97320 39
2010-11-08 12:08 51°17.03 2°25.839 12.4 22 7 97330 39
2010-11-08 12:09 51°17.086 2°25.911 14.4 21 7.2 97310 40
2010-11-08 12:10 51°17.145 2°25.975 13 25 7 97300 39
2010-11-08 12:11 51°17.202 2°26.037 11.7 27 7 97320 38
2010-11-08 12:12 51°17.26 2°26.101 12.5 20 7.3 97290 40
2010-11-08 12:13 51°17.319 2°26.163 15 24 7.1 97300 38
2010-11-08 12:14 51°17.376 2°26.233 16.4 18 7.2 97300 38
2010-11-08 12:15 51°17.435 2°26.301 17.8 22 7.3 97300 39
2010-11-08 12:16 51°17.489 2°26.371 13.8 26 7.2 97300 38
2010-11-08 12:17 51°17.544 2°26.441 13.9 18 7.1 97300 39
2010-11-08 12:18 51°17.598 2°26.511 16.4 20 7.4 97300 39
2010-11-08 12:19 51°17.654 2°26.582 16 23 7.4 97300 40
2010-11-08 12:20 51°17.711 2°26.652 12.1 25 7.2 97300 38
2010-11-08 12:21 51°17.767 2°26.717 16.4 25 7.3 97300 40
2010-11-08 12:22 51°17.825 2°26.781 18.2 25 7.1 97280 37
2010-11-08 12:23 51°17.883 2°26.85 14.1 23 7 97260 38
2010-11-08 12:24 51°17.94 2°26.92 13.5 27 7 97270 39
2010-11-08 12:25 51°17.995 2°26.99 13.7 22 7.2 97280 39
2010-11-08 12:26 51°18.051 2°27.062 13.2 15 7.1 97280 38
2010-11-08 12:27 51°18.106 2°27.137 15.3 17 7.2 97270 40
2010-11-08 12:28 51°18.159 2°27.209 16.4 20 7.1 97260 39
2010-11-08 12:29 51°18.212 2°27.282 15 16 7.3 97270 39
2010-11-08 12:30 51°18.264 2°27.36 14.6 16 7.3 97270 38
2010-11-08 12:31 51°18.318 2°27.431 16 15 7.1 97260 38
2010-11-08 12:32 51°18.371 2°27.503 15.6 15 7.2 97270 39
2010-11-08 12:33 51°18.423 2°27.577 17.2 14 7.1 97270 39
2010-11-08 12:34 51°18.478 2°27.647 15.6 15 7.1 97250 39
2010-11-08 12:35 51°18.534 2°27.716 17.5 22 7 97270 38
2010-11-08 12:36 51°18.585 2°27.781 13.9 19 7 97250 38
2010-11-08 12:37 51°18.632 2°27.845 15.2 13 7.1 97260 38
2010-11-08 12:38 51°18.681 2°27.911 16.2 18 7.1 97270 37
2010-11-08 12:39 51°18.732 2°27.975 14.7 14 7 97230 38
2010-11-08 12:40 51°18.778 2°28.041 16.1 18 7.1 97240 39
2010-11-08 12:41 51°18.825 2°28.106 13.8 11 7 97220 38
2010-11-08 12:42 51°18.867 2°28.167 19.3 15 7.2 97240 39
2010-11-08 12:43 51°18.909 2°28.223 16.4 13 7.1 97250 38
2010-11-08 12:44 51°18.952 2°28.279 14.7 14 7 97240 39
2010-11-08 12:45 51°18.994 2°28.336 16.5 15 7 97230 38
2010-11-08 12:46 51°19.037 2°28.4 15.2 7 7.1 97240 38
2010-11-08 12:47 51°19.081 2°28.464 14.2 6 7.1 97230 39
2010-11-08 12:48 51°19.122 2°28.523 15.4 14 7.2 97250 39
2010-11-08 12:49 51°19.162 2°28.565 15.1 16 7.2 97220 40
2010-11-08 12:50 51°19.199 2°28.591 13.9 13 7.1 97210 38
2010-11-08 12:51 51°19.235 2°28.614 12.2 23 7 97230 38
2010-11-08 12:52 51°19.275 2°28.649 13.2 19 7.2 97230 40
2010-11-08 12:53 51°19.37 2°28.786 16.2 6 7.2 97220 40
2010-11-08 12:54 51°19.488 2°29.049 16.7 -999 7 97210 38
2010-11-08 12:55 51°19.58 2°29.392 18.6 351 7 97180 39
2010-11-08 12:56 51°19.653 2°29.753 20.3 352 7.2 97140 38
2010-11-08 12:57 51°19.725 2°30.129 23.4 354 6.8 97160 40
2010-11-08 12:58 51°19.792 2°30.506 17.1 350 6.3 97160 41
2010-11-08 12:59 51°19.867 2°30.882 16.5 355 6.2 97160 42
2010-11-08 13:00 51°19.941 2°31.233 20.5 354 6.2 97150 42
2010-11-08 13:01 51°20.021 2°31.587 20.6 358 6.1 97150 42
2010-11-08 13:02 51°20.07 2°31.937 16.9 281 5.9 97160 41
2010-11-08 13:03 51°20.09 2°32.299 23.2 346 6.1 97180 42
2010-11-08 13:04 51°20.106 2°32.66 21 281 6.2 97160 42
2010-11-08 13:05 51°20.098 2°33.016 21.7 282 6.5 97170 43
2010-11-08 13:06 51°20.118 2°33.383 22.4 283 6.6 97190 41
2010-11-08 13:07 51°20.149 2°33.746 19.8 348 6.4 97180 41
2010-11-08 13:08 51°20.171 2°34.115 19.3 282 6.1 97180 41
2010-11-08 13:09 51°20.179 2°34.483 17.1 283 6 97170 41
2010-11-08 13:10 51°20.185 2°34.848 16.6 281 6.2 97160 40
2010-11-08 13:11 51°20.189 2°35.209 22 282 6.1 97200 42
2010-11-08 13:12 51°20.192 2°35.573 21 281 5.8 97180 42
2010-11-08 13:13 51°20.173 2°35.938 22.6 283 5.8 97180 41
2010-11-08 13:14 51°20.15 2°36.295 17.4 347 5.7 97180 41
2010-11-08 13:15 51°20.125 2°36.651 22.4 284 5.9 97190 41
2010-11-08 13:16 51°20.102 2°37.01 22.6 348 6.1 97190 41
2010-11-08 13:17 51°20.079 2°37.372 17.8 284 6.2 97160 40
2010-11-08 13:18 51°20.059 2°37.731 21.4 283 6.6 97190 39
2010-11-08 13:19 51°20.04 2°38.087 18.9 283 6.6 97160 39
2010-11-08 13:20 51°20.017 2°38.445 21.5 282 6.5 97180 39
2010-11-08 13:21 51°19.996 2°38.802 19.1 284 6.4 97150 40
2010-11-08 13:22 51°19.975 2°39.156 19.5 284 6.6 97160 39
2010-11-08 13:23 51°19.957 2°39.512 16.8 282 6.5 97180 39
2010-11-08 13:24 51°19.936 2°39.869 23.9 284 6.7 97180 38
2010-11-08 13:25 51°19.918 2°40.227 23.7 285 6.8 97170 39
2010-11-08 13:26 51°19.901 2°40.587 16.1 285 6.8 97170 40
2010-11-08 13:27 51°19.882 2°40.955 10.4 284 6.9 97170 39
2010-11-08 13:28 51°19.859 2°41.317 23.7 281 7 97170 39
2010-11-08 13:29 51°19.838 2°41.679 18.9 284 6.8 97160 38
2010-11-08 13:30 51°19.816 2°42.039 18.1 285 6.8 97160 38
2010-11-08 13:31 51°19.793 2°42.399 21.4 282 6.9 97180 38
2010-11-08 13:32 51°19.77 2°42.756 23.8 281 6.9 97190 39
2010-11-08 13:33 51°19.747 2°43.112 19.1 282 6.8 97160 38
2010-11-08 13:34 51°19.722 2°43.468 9 281 7.1 97160 38
2010-11-08 13:35 51°19.702 2°43.824 19.3 283 6.9 97180 38
2010-11-08 13:36 51°19.683 2°44.181 19.8 282 7.1 97180 38
2010-11-08 13:37 51°19.667 2°44.538 22.2 282 6.9 97180 37
2010-11-08 13:38 51°19.65 2°44.901 17 284 6.8 97170 38
2010-11-08 13:39 51°19.632 2°45.267 19.2 284 7.2 97170 38
2010-11-08 13:40 51°19.613 2°45.637 14.8 283 7.1 97180 38
2010-11-08 13:41 51°19.592 2°46.002 19 284 6.8 97180 37
2010-11-08 13:42 51°19.571 2°46.367 19.4 282 7 97180 38
2010-11-08 13:43 51°19.549 2°46.729 18.2 347 6.9 97190 38
2010-11-08 13:44 51°19.507 2°47.078 12 282 7 97190 38
2010-11-08 13:45 51°19.391 2°47.367 9.1 281 7.1 97210 39
2010-11-08 13:46 51°19.272 2°47.654 20.2 284 6.9 97200 38
2010-11-08 13:47 51°19.16 2°47.948 21.2 286 6.9 97190 38
2010-11-08 13:48 51°19.049 2°48.244 21.7 284 6.8 97190 38
2010-11-08 13:49 51°18.941 2°48.545 18.2 282 6.7 97200 38
2010-11-08 13:50 51°18.83 2°48.842 17.9 281 6.8 97180 38
2010-11-08 13:51 51°18.719 2°49.137 22.6 282 6.7 97190 37
2010-11-08 13:52 51°18.605 2°49.431 20.5 281 6.8 97210 40
2010-11-08 13:53 51°18.494 2°49.723 18.3 283 6.9 97200 38
2010-11-08 13:54 51°18.382 2°50.015 10.3 280 7 97170 38
2010-11-08 13:55 51°18.273 2°50.304 13.1 281 6.8 97190 39
2010-11-08 13:56 51°18.165 2°50.596 18.9 284 6.9 97190 39
2010-11-08 13:57 51°18.058 2°50.886 13.6 282 6.9 97190 38
2010-11-08 13:58 51°17.95 2°51.175 19.7 283 6.7 97200 39
2010-11-08 13:59 51°17.835 2°51.453 21.7 283 6.8 97200 40
2010-11-08 14:00 51°17.695 2°51.694 21.6 281 6.7 97190 38
2010-11-08 14:01 51°17.543 2°51.908 19.7 282 6.7 97180 39
2010-11-08 14:02 51°17.371 2°52.066 10.1 282 6.8 97170 39
2010-11-08 14:03 51°17.194 2°52.2 25.6 283 6.7 97170 38
2010-11-08 14:04 51°17.025 2°52.365 24.4 285 6.7 97170 39
2010-11-08 14:05 51°16.856 2°52.542 8.2 283 6.5 97160 39
2010-11-08 14:06 51°16.687 2°52.724 20.4 284 6.6 97170 39
2010-11-08 14:07 51°16.513 2°52.898 13.2 282 6.6 97180 38
2010-11-08 14:08 51°16.34 2°53.065 17.8 283 6.5 97180 39
2010-11-08 14:09 51°16.162 2°53.22 17.9 283 6.5 97180 38
2010-11-08 14:10 51°15.984 2°53.377 21.7 284 6.5 97180 39
2010-11-08 14:11 51°15.809 2°53.537 10.3 283 6.4 97140 40
2010-11-08 14:12 51°15.637 2°53.713 16.4 283 6.3 97180 38
2010-11-08 14:13 51°15.466 2°53.889 19.8 284 6.3 97160 38
2010-11-08 14:14 51°15.295 2°54.071 17.8 284 6.3 97180 39
2010-11-08 14:15 51°15.128 2°54.26 19.1 283 6.2 97160 38
2010-11-08 14:16 51°14.965 2°54.467 13.5 282 6.1 97180 38
2010-11-08 14:17 51°14.81 2°54.689 16.4 283 6.2 97190 40
2010-11-08 14:18 51°14.657 2°54.895 13.5 281 6.1 97190 38
2010-11-08 14:19 51°14.519 2°55.055 10.4 287 6 97190 38
2010-11-08 14:20 51°14.396 2°55.167 11.6 282 6 97200 38
2010-11-08 14:21 51°14.28 2°55.274 7.6 285 5.9 97190 37
2010-11-08 14:22 51°14.162 2°55.374 12.7 287 5.7 97180 39
2010-11-08 14:23 51°14.044 2°55.464 13 283 5.8 97180 39
2010-11-08 14:24 51°13.95 2°55.532 10.5 281 5.8 97190 39
2010-11-08 14:25 51°13.886 2°55.577 8.9 281 5.7 97190 39
2010-11-08 14:26 51°13.823 2°55.625 10.7 282 5.7 97190 38
2010-11-08 14:27 51°13.761 2°55.707 9.7 283 5.7 97190 39
2010-11-08 14:28 51°13.711 2°55.805 9.8 283 5.6 97190 37
2010-11-08 14:29 51°13.674 2°55.899 10.3 286 5.6 97200 37